| time (UTC) | temp F | wind direction | speed MPH | gust MPH | rain 1hr in | rain 24hr in | rain mn in | humidity % | barometer mb |
| 20260509014521 | 56 | 144 | 2.0 | 4.0 | 0.00 | 0.01 | 0.01 | 79 | 1006.9 |
| 20260509014039 | 56 | 117 | 2.0 | 4.0 | 0.01 | 0.01 | 0.01 | 78 | 1007.0 |
| 20260509013604 | 56 | 306 | 0.0 | 1.0 | 0.01 | 0.01 | 0.01 | 77 | 1007.0 |
| 20260509013041 | 56 | 306 | 0.0 | 0.0 | 0.01 | 0.01 | 0.01 | 76 | 1007.0 |
| 20260509012556 | 56 | 306 | 0.0 | 0.0 | 0.01 | 0.01 | 0.01 | 76 | 1006.8 |
| 20260509011519 | 56 | 306 | 0.0 | 1.0 | 0.01 | 0.01 | 0.01 | 74 | 1006.8 |
| 20260509010524 | 56 | 306 | 0.0 | 2.0 | 0.01 | 0.01 | 0.01 | 74 | 1006.8 |
| 20260509010044 | 56 | 306 | 1.0 | 4.0 | 0.01 | 0.01 | 0.01 | 73 | 1006.8 |
| 20260509005015 | 56 | 19 | 0.0 | 3.0 | 0.01 | 0.01 | 0.01 | 71 | 1006.7 |
| 20260509004520 | 57 | 19 | 0.0 | 3.0 | 0.01 | 0.01 | 0.01 | 70 | 1006.7 |
| 20260509004023 | 57 | 19 | 0.0 | 1.0 | 0.00 | 0.00 | 0.00 | 68 | 1006.4 |
| 20260509003540 | 57 | 19 | 0.0 | 2.0 | 0.00 | 0.00 | 0.00 | 67 | 1006.4 |
| 20260509003056 | 57 | 19 | 0.0 | 2.0 | 0.00 | 0.00 | 0.00 | 66 | 1006.4 |
| 20260509002034 | 58 | 19 | 0.0 | 0.0 | 0.00 | 0.00 | 0.00 | 65 | 1006.4 |
| 20260509001558 | 58 | 19 | 0.0 | 0.0 | 0.00 | 0.00 | 0.00 | 64 | 1006.4 |
| 20260509001049 | 58 | 19 | 0.0 | 0.0 | 0.00 | 0.00 | 0.00 | 63 | 1006.5 |
| 20260509000602 | 58 | 19 | 0.0 | 3.0 | 0.00 | 0.00 | 0.00 | 62 | 1006.5 |
| 20260508235548 | 59 | 19 | 1.0 | 3.0 | 0.00 | 0.00 | 0.00 | 59 | 1006.2 |
| 20260508234530 | 59 | 19 | 0.0 | 2.0 | 0.00 | 0.00 | 0.00 | 57 | 1006.2 |
| 20260508234029 | 60 | 19 | 1.0 | 5.0 | 0.00 | 0.00 | 0.00 | 56 | 1006.0 |
| 20260508233547 | 60 | 19 | 1.0 | 5.0 | 0.00 | 0.00 | 0.00 | 55 | 1006.0 |
| 20260508233043 | 61 | 344 | 2.0 | 9.0 | 0.00 | 0.00 | 0.00 | 54 | 1006.0 |
| 20260508232028 | 61 | 232 | 2.0 | 6.0 | 0.00 | 0.00 | 0.00 | 51 | 1006.3 |
| 20260508231541 | 61 | 222 | 2.0 | 5.0 | 0.00 | 0.00 | 0.00 | 52 | 1006.3 |
| 20260508231049 | 61 | 210 | 2.0 | 5.0 | 0.00 | 0.00 | 0.00 | 51 | 1006.4 |
| 20260508230610 | 62 | 257 | 2.0 | 5.0 | 0.00 | 0.00 | 0.00 | 50 | 1006.4 |
| 20260508230035 | 62 | 185 | 0.0 | 4.0 | 0.00 | 0.00 | 0.00 | 50 | 1006.4 |
| 20260508225550 | 62 | 257 | 2.0 | 5.0 | 0.00 | 0.00 | 0.00 | 49 | 1006.2 |
| 20260508225103 | 62 | 227 | 2.0 | 5.0 | 0.00 | 0.00 | 0.00 | 49 | 1006.2 |
| 20260508224609 | 62 | 204 | 2.0 | 5.0 | 0.00 | 0.00 | 0.00 | 48 | 1006.2 |
| 20260508223529 | 63 | 182 | 1.0 | 7.0 | 0.00 | 0.00 | 0.00 | 47 | 1006.0 |
| 20260508223054 | 63 | 196 | 3.0 | 9.0 | 0.00 | 0.00 | 0.00 | 45 | 1006.0 |
| 20260508222555 | 63 | 223 | 4.0 | 9.0 | 0.00 | 0.00 | 0.00 | 45 | 1006.1 |
| 20260508221549 | 64 | 220 | 3.0 | 8.0 | 0.00 | 0.00 | 0.00 | 43 | 1006.1 |
| 20260508220541 | 64 | 265 | 5.0 | 12.0 | 0.00 | 0.00 | 0.00 | 43 | 1005.9 |
| 20260508215523 | 65 | 205 | 5.0 | 9.0 | 0.00 | 0.00 | 0.00 | 43 | 1005.6 |
| 20260508215041 | 65 | 290 | 3.0 | 7.0 | 0.00 | 0.00 | 0.00 | 43 | 1005.6 |
| 20260508214032 | 65 | 223 | 3.0 | 7.0 | 0.00 | 0.00 | 0.00 | 43 | 1005.7 |
| 20260508213023 | 65 | 219 | 3.0 | 8.0 | 0.00 | 0.00 | 0.00 | 42 | 1005.7 |
| 20260508212025 | 65 | 234 | 7.0 | 15.0 | 0.00 | 0.00 | 0.00 | 41 | 1005.8 |
| 20260508211545 | 65 | 194 | 4.0 | 15.0 | 0.00 | 0.00 | 0.00 | 43 | 1005.8 |
| 20260508211053 | 65 | 237 | 6.0 | 14.0 | 0.00 | 0.00 | 0.00 | 44 | 1005.8 |
| 20260508210616 | 65 | 179 | 4.0 | 14.0 | 0.00 | 0.00 | 0.00 | 45 | 1005.8 |
| 20260508210107 | 65 | 188 | 4.0 | 13.0 | 0.00 | 0.00 | 0.00 | 45 | 1005.8 |
| 20260508205022 | 65 | 211 | 4.0 | 10.0 | 0.00 | 0.00 | 0.00 | 45 | 1005.8 |
| 20260508204545 | 65 | 219 | 4.0 | 10.0 | 0.00 | 0.00 | 0.00 | 46 | 1005.8 |
| 20260508203524 | 64 | 213 | 4.0 | 13.0 | 0.00 | 0.00 | 0.00 | 45 | 1006.1 |
| 20260508203047 | 65 | 217 | 5.0 | 13.0 | 0.00 | 0.00 | 0.00 | 45 | 1006.1 |
| 20260508202605 | 65 | 191 | 3.0 | 6.0 | 0.00 | 0.00 | 0.00 | 46 | 1006.3 |
| 20260508202117 | 65 | 195 | 2.0 | 8.0 | 0.00 | 0.00 | 0.00 | 46 | 1006.3 |
| 20260508201622 | 65 | 227 | 2.0 | 13.0 | 0.00 | 0.00 | 0.00 | 45 | 1006.3 |
| 20260508200547 | 64 | 193 | 6.0 | 12.0 | 0.00 | 0.00 | 0.00 | 45 | 1006.4 |
| 20260508195532 | 64 | 202 | 5.0 | 12.0 | 0.00 | 0.00 | 0.00 | 45 | 1006.7 |
| 20260508195039 | 64 | 161 | 6.0 | 11.0 | 0.00 | 0.00 | 0.00 | 45 | 1006.7 |
| 20260508194030 | 64 | 198 | 3.0 | 10.0 | 0.00 | 0.00 | 0.00 | 48 | 1006.9 |
| 20260508193545 | 64 | 208 | 3.0 | 10.0 | 0.00 | 0.00 | 0.00 | 47 | 1006.9 |
| 20260508192525 | 64 | 188 | 3.0 | 9.0 | 0.00 | 0.00 | 0.00 | 48 | 1007.1 |
| 20260508192043 | 64 | 185 | 3.0 | 9.0 | 0.00 | 0.00 | 0.00 | 48 | 1007.1 |
| 20260508191553 | 64 | 209 | 5.0 | 11.0 | 0.00 | 0.00 | 0.00 | 48 | 1007.1 |
| 20260508190535 | 64 | 208 | 4.0 | 11.0 | 0.00 | 0.00 | 0.00 | 47 | 1007.3 |
| 20260508185529 | 65 | 167 | 4.0 | 15.0 | 0.00 | 0.00 | 0.00 | 48 | 1007.4 |
| 20260508185037 | 66 | 170 | 4.0 | 11.0 | 0.00 | 0.00 | 0.00 | 48 | 1007.4 |
| 20260508184022 | 66 | 198 | 6.0 | 11.0 | 0.00 | 0.00 | 0.00 | 49 | 1007.4 |
| 20260508183548 | 66 | 280 | 3.0 | 8.0 | 0.00 | 0.00 | 0.00 | 52 | 1007.4 |
| 20260508183106 | 65 | 288 | 4.0 | 11.0 | 0.00 | 0.00 | 0.00 | 50 | 1007.4 |
| 20260508182033 | 64 | 308 | 2.0 | 4.0 | 0.00 | 0.00 | 0.00 | 52 | 1007.9 |
| 20260508181541 | 64 | 229 | 1.0 | 6.0 | 0.00 | 0.00 | 0.00 | 51 | 1007.9 |
| 20260508180518 | 63 | 197 | 2.0 | 5.0 | 0.00 | 0.00 | 0.00 | 52 | 1008.5 |
| 20260508180033 | 63 | 215 | 1.0 | 5.0 | 0.00 | 0.00 | 0.00 | 51 | 1008.5 |
| 20260508175557 | 63 | 270 | 1.0 | 5.0 | 0.00 | 0.00 | 0.00 | 51 | 1008.7 |
| 20260508174532 | 62 | 229 | 1.0 | 4.0 | 0.00 | 0.00 | 0.00 | 54 | 1008.7 |
| 20260508174029 | 61 | 229 | 2.0 | 7.0 | 0.00 | 0.00 | 0.00 | 53 | 1009.1 |
| 20260508173529 | 61 | 28 | 1.0 | 6.0 | 0.00 | 0.00 | 0.00 | 52 | 1009.1 |
| 20260508172526 | 61 | 223 | 3.0 | 5.0 | 0.00 | 0.00 | 0.00 | 52 | 1009.5 |
| 20260508171524 | 60 | 282 | 3.0 | 6.0 | 0.00 | 0.00 | 0.00 | 53 | 1009.5 |
| 20260508170527 | 60 | 317 | 3.0 | 6.0 | 0.00 | 0.00 | 0.00 | 53 | 1009.7 |
| 20260508170043 | 60 | 220 | 3.0 | 5.0 | 0.00 | 0.00 | 0.00 | 52 | 1009.7 |
| 20260508165041 | 60 | 262 | 4.0 | 8.0 | 0.00 | 0.00 | 0.00 | 52 | 1009.9 |
| 20260508164544 | 60 | 279 | 2.0 | 6.0 | 0.00 | 0.00 | 0.00 | 53 | 1009.9 |
| 20260508164049 | 60 | 232 | 2.0 | 7.0 | 0.00 | 0.00 | 0.00 | 54 | 1009.8 |
| 20260508163611 | 60 | 289 | 3.0 | 8.0 | 0.00 | 0.00 | 0.00 | 53 | 1009.8 |
| 20260508163056 | 60 | 279 | 3.0 | 9.0 | 0.00 | 0.00 | 0.00 | 54 | 1009.8 |
| 20260508162556 | 60 | 232 | 3.0 | 8.0 | 0.00 | 0.00 | 0.00 | 54 | 1009.9 |
| 20260508161534 | 59 | 213 | 3.0 | 11.0 | 0.00 | 0.00 | 0.00 | 56 | 1009.9 |
| 20260508161052 | 59 | 185 | 4.0 | 11.0 | 0.00 | 0.00 | 0.00 | 55 | 1010.1 |
| 20260508160603 | 59 | 277 | 3.0 | 10.0 | 0.00 | 0.00 | 0.00 | 56 | 1010.1 |
| 20260508160103 | 59 | 194 | 4.0 | 12.0 | 0.00 | 0.00 | 0.00 | 58 | 1010.1 |
| 20260508155614 | 58 | 224 | 2.0 | 12.0 | 0.00 | 0.00 | 0.00 | 57 | 1010.2 |
| 20260508155109 | 57 | 201 | 3.0 | 8.0 | 0.00 | 0.00 | 0.00 | 58 | 1010.2 |
| 20260508154031 | 57 | 217 | 4.0 | 7.0 | 0.00 | 0.00 | 0.00 | 59 | 1010.1 |
| 20260508153551 | 56 | 175 | 2.0 | 8.0 | 0.00 | 0.00 | 0.00 | 61 | 1010.1 |
| 20260508153049 | 55 | 222 | 3.0 | 7.0 | 0.00 | 0.00 | 0.00 | 62 | 1010.1 |
| 20260508152531 | 55 | 180 | 3.0 | 6.0 | 0.00 | 0.00 | 0.00 | 61 | 1010.2 |
| 20260508152057 | 54 | 172 | 3.0 | 8.0 | 0.00 | 0.00 | 0.00 | 62 | 1010.2 |
| 20260508150528 | 53 | 185 | 2.0 | 6.0 | 0.00 | 0.00 | 0.00 | 62 | 1010.4 |
| 20260508150040 | 53 | 177 | 2.0 | 8.0 | 0.00 | 0.00 | 0.00 | 62 | 1010.4 |
| 20260508145552 | 53 | 184 | 2.0 | 8.0 | 0.00 | 0.00 | 0.00 | 63 | 1010.5 |
| 20260508144520 | 53 | 199 | 2.0 | 7.0 | 0.00 | 0.00 | 0.00 | 62 | 1010.5 |
| 20260508144030 | 53 | 196 | 2.0 | 7.0 | 0.00 | 0.00 | 0.00 | 63 | 1010.4 |
| 20260508143556 | 53 | 184 | 3.0 | 7.0 | 0.00 | 0.00 | 0.00 | 63 | 1010.4 |
| 20260508143035 | 53 | 295 | 3.0 | 7.0 | 0.00 | 0.00 | 0.00 | 63 | 1010.4 |
| 20260508142539 | 53 | 214 | 3.0 | 7.0 | 0.00 | 0.00 | 0.00 | 63 | 1010.6 |
| 20260508142107 | 53 | 191 | 2.0 | 7.0 | 0.00 | 0.00 | 0.00 | 64 | 1010.6 |
| 20260508141026 | 52 | 205 | 1.0 | 5.0 | 0.00 | 0.00 | 0.00 | 64 | 1010.5 |
| 20260508140548 | 52 | 190 | 2.0 | 6.0 | 0.00 | 0.00 | 0.00 | 64 | 1010.5 |
| 20260508140051 | 52 | 197 | 2.0 | 6.0 | 0.00 | 0.00 | 0.00 | 64 | 1010.5 |
| 20260508135556 | 52 | 166 | 1.0 | 5.0 | 0.00 | 0.00 | 0.00 | 65 | 1010.6 |
| 20260508135046 | 52 | 222 | 2.0 | 5.0 | 0.00 | 0.00 | 0.00 | 65 | 1010.6 |
| 20260508134022 | 52 | 186 | 3.0 | 6.0 | 0.00 | 0.00 | 0.00 | 65 | 1010.5 |
| 20260508133535 | 52 | 195 | 2.0 | 7.0 | 0.00 | 0.00 | 0.00 | 65 | 1010.5 |
| 20260508133045 | 52 | 209 | 3.0 | 7.0 | 0.00 | 0.00 | 0.00 | 64 | 1010.5 |
| 20260508132045 | 51 | 240 | 3.0 | 7.0 | 0.00 | 0.00 | 0.00 | 65 | 1010.4 |
| 20260508131557 | 51 | 196 | 3.0 | 7.0 | 0.00 | 0.00 | 0.00 | 66 | 1010.4 |
| 20260508131114 | 51 | 184 | 3.0 | 7.0 | 0.00 | 0.00 | 0.00 | 66 | 1010.3 |
| 20260508130556 | 51 | 194 | 3.0 | 6.0 | 0.00 | 0.00 | 0.00 | 66 | 1010.3 |
| 20260508130109 | 51 | 188 | 2.0 | 6.0 | 0.00 | 0.00 | 0.00 | 67 | 1010.3 |
| 20260508125554 | 51 | 225 | 2.0 | 6.0 | 0.00 | 0.00 | 0.00 | 67 | 1010.3 |
| 20260508125039 | 51 | 223 | 1.0 | 6.0 | 0.00 | 0.00 | 0.00 | 67 | 1010.3 |
| 20260508124021 | 50 | 193 | 2.0 | 6.0 | 0.00 | 0.00 | 0.00 | 68 | 1010.2 |
| 20260508123527 | 50 | 215 | 3.0 | 6.0 | 0.00 | 0.00 | 0.00 | 69 | 1010.2 |
| 20260508123044 | 50 | 216 | 1.0 | 8.0 | 0.00 | 0.00 | 0.00 | 69 | 1010.2 |
| 20260508122609 | 49 | 170 | 3.0 | 8.0 | 0.00 | 0.00 | 0.00 | 70 | 1010.1 |
| 20260508122124 | 49 | 161 | 2.0 | 6.0 | 0.00 | 0.00 | 0.00 | 69 | 1010.1 |
| 20260508121025 | 49 | 223 | 2.0 | 5.0 | 0.00 | 0.00 | 0.00 | 70 | 1010.2 |
| 20260508120555 | 49 | 207 | 2.0 | 6.0 | 0.00 | 0.00 | 0.00 | 71 | 1010.2 |
| 20260508120059 | 49 | 187 | 3.0 | 7.0 | 0.00 | 0.00 | 0.00 | 71 | 1010.2 |
| 20260508115034 | 48 | 184 | 2.0 | 6.0 | 0.00 | 0.00 | 0.00 | 72 | 1010.1 |
| 20260508114017 | 47 | 201 | 2.0 | 6.0 | 0.00 | 0.00 | 0.00 | 73 | 1010.0 |
| 20260508113530 | 47 | 174 | 2.0 | 7.0 | 0.00 | 0.00 | 0.00 | 73 | 1010.0 |
| 20260508113102 | 46 | 173 | 3.0 | 7.0 | 0.00 | 0.00 | 0.00 | 74 | 1010.0 |
| 20260508112614 | 46 | 191 | 2.0 | 5.0 | 0.00 | 0.00 | 0.00 | 74 | 1010.0 |
| 20260508112024 | 46 | 192 | 1.0 | 4.0 | 0.00 | 0.00 | 0.00 | 74 | 1010.0 |
| 20260508111544 | 45 | 192 | 1.0 | 4.0 | 0.00 | 0.00 | 0.00 | 75 | 1010.0 |
| 20260508111041 | 45 | 192 | 1.0 | 4.0 | 0.00 | 0.00 | 0.00 | 75 | 1009.9 |
| 20260508110050 | 44 | 192 | 1.0 | 3.0 | 0.00 | 0.00 | 0.00 | 76 | 1009.9 |
| 20260508105553 | 44 | 191 | 1.0 | 4.0 | 0.00 | 0.00 | 0.00 | 76 | 1009.8 |
| 20260508105029 | 44 | 191 | 1.0 | 4.0 | 0.00 | 0.00 | 0.00 | 76 | 1009.8 |
| 20260508104545 | 43 | 191 | 0.0 | 0.0 | 0.00 | 0.00 | 0.00 | 77 | 1009.8 |
| 20260508104043 | 43 | 191 | 0.0 | 2.0 | 0.00 | 0.00 | 0.00 | 78 | 1009.6 |
| 20260508103543 | 42 | 191 | 0.0 | 3.0 | 0.00 | 0.00 | 0.00 | 80 | 1009.6 |
| 20260508103043 | 42 | 191 | 1.0 | 3.0 | 0.00 | 0.00 | 0.00 | 80 | 1009.6 |
| 20260508102031 | 41 | 207 | 1.0 | 4.0 | 0.00 | 0.00 | 0.00 | 82 | 1009.6 |
| 20260508101538 | 41 | 219 | 0.0 | 0.0 | 0.00 | 0.00 | 0.00 | 81 | 1009.6 |
| 20260508101041 | 41 | 219 | 0.0 | 0.0 | 0.00 | 0.00 | 0.00 | 81 | 1009.5 |
| 20260508100550 | 41 | 219 | 0.0 | 0.0 | 0.00 | 0.00 | 0.00 | 81 | 1009.5 |
| 20260508100050 | 41 | 219 | 0.0 | 0.0 | 0.00 | 0.00 | 0.00 | 81 | 1009.5 |
| 20260508095036 | 42 | 219 | 0.0 | 1.0 | 0.00 | 0.00 | 0.00 | 80 | 1009.6 |
| 20260508094548 | 42 | 219 | 0.0 | 1.0 | 0.00 | 0.00 | 0.00 | 80 | 1009.6 |
| 20260508094026 | 42 | 219 | 0.0 | 0.0 | 0.00 | 0.00 | 0.00 | 80 | 1009.6 |
| 20260508093545 | 42 | 219 | 0.0 | 0.0 | 0.00 | 0.00 | 0.00 | 80 | 1009.6 |
| 20260508092525 | 43 | 219 | 0.0 | 0.0 | 0.00 | 0.00 | 0.00 | 80 | 1009.7 |
| 20260508092042 | 43 | 219 | 0.0 | 0.0 | 0.00 | 0.00 | 0.00 | 79 | 1009.7 |
| 20260508091550 | 42 | 219 | 0.0 | 1.0 | 0.00 | 0.00 | 0.00 | 79 | 1009.7 |
| 20260508091039 | 42 | 219 | 0.0 | 1.0 | 0.00 | 0.00 | 0.00 | 78 | 1009.7 |
| 20260508090030 | 43 | 219 | 0.0 | 1.0 | 0.00 | 0.00 | 0.00 | 78 | 1009.7 |
| 20260508085550 | 43 | 219 | 0.0 | 0.0 | 0.00 | 0.00 | 0.00 | 78 | 1009.6 |
| 20260508085056 | 43 | 219 | 0.0 | 0.0 | 0.00 | 0.00 | 0.00 | 78 | 1009.6 |
| 20260508084038 | 43 | 219 | 0.0 | 0.0 | 0.00 | 0.00 | 0.00 | 79 | 1009.6 |
| 20260508083537 | 43 | 219 | 0.0 | 0.0 | 0.00 | 0.00 | 0.00 | 79 | 1009.6 |
| 20260508083051 | 43 | 219 | 0.0 | 0.0 | 0.00 | 0.00 | 0.00 | 78 | 1009.6 |
| 20260508082610 | 44 | 219 | 0.0 | 0.0 | 0.00 | 0.00 | 0.00 | 78 | 1009.6 |
| 20260508081536 | 44 | 219 | 0.0 | 0.0 | 0.00 | 0.00 | 0.00 | 78 | 1009.6 |
| 20260508080520 | 45 | 219 | 0.0 | 0.0 | 0.00 | 0.00 | 0.00 | 76 | 1009.6 |
| 20260508080044 | 45 | 219 | 0.0 | 0.0 | 0.00 | 0.00 | 0.00 | 76 | 1009.6 |
| 20260508075541 | 45 | 219 | 0.0 | 1.0 | 0.00 | 0.00 | 0.00 | 76 | 1009.7 |
| 20260508075046 | 46 | 219 | 0.0 | 0.0 | 0.00 | 0.00 | 0.00 | 75 | 1009.7 |
| 20260508074545 | 46 | 219 | 0.0 | 0.0 | 0.00 | 0.00 | 0.00 | 75 | 1009.7 |
| 20260508074106 | 46 | 219 | 0.0 | 0.0 | 0.00 | 0.00 | 0.00 | 74 | 1009.7 |
| 20260508073608 | 46 | 219 | 0.0 | 0.0 | 0.00 | 0.00 | 0.00 | 75 | 1009.7 |
| 20260508073116 | 47 | 219 | 0.0 | 0.0 | 0.00 | 0.00 | 0.00 | 74 | 1009.7 |
| 20260508072519 | 47 | 219 | 0.0 | 0.0 | 0.00 | 0.00 | 0.00 | 74 | 1009.9 |
| 20260508072041 | 47 | 219 | 0.0 | 0.0 | 0.00 | 0.00 | 0.00 | 74 | 1009.9 |
| 20260508071611 | 47 | 219 | 0.0 | 0.0 | 0.00 | 0.00 | 0.00 | 74 | 1009.9 |
| 20260508071115 | 48 | 219 | 0.0 | 0.0 | 0.00 | 0.00 | 0.00 | 73 | 1010.1 |
| 20260508070521 | 48 | 219 | 0.0 | 0.0 | 0.00 | 0.00 | 0.00 | 73 | 1010.1 |
| 20260508070020 | 48 | 219 | 0.0 | 0.0 | 0.00 | 0.00 | 0.00 | 73 | 1010.1 |
| 20260508065534 | 48 | 219 | 0.0 | 1.0 | 0.00 | 0.00 | 0.00 | 72 | 1010.1 |
| 20260508065108 | 48 | 219 | 0.0 | 1.0 | 0.00 | 0.00 | 0.00 | 72 | 1010.1 |
| 20260508064608 | 49 | 219 | 0.0 | 2.0 | 0.00 | 0.00 | 0.00 | 71 | 1010.1 |
| 20260508064130 | 49 | 219 | 1.0 | 2.0 | 0.00 | 0.00 | 0.00 | 70 | 1010.2 |
| 20260508063519 | 49 | 219 | 0.0 | 2.0 | 0.00 | 0.00 | 0.00 | 69 | 1010.2 |
| 20260508063039 | 49 | 219 | 0.0 | 3.0 | 0.00 | 0.00 | 0.00 | 68 | 1010.2 |
| 20260508062603 | 49 | 238 | 1.0 | 3.0 | 0.00 | 0.00 | 0.00 | 68 | 1010.6 |
| 20260508061525 | 49 | 238 | 1.0 | 3.0 | 0.00 | 0.00 | 0.00 | 66 | 1010.6 |
| 20260508061052 | 49 | 319 | 1.0 | 4.0 | 0.00 | 0.00 | 0.00 | 66 | 1011.0 |
| 20260508060604 | 49 | 313 | 1.0 | 5.0 | 0.00 | 0.00 | 0.00 | 65 | 1011.0 |
| 20260508060033 | 50 | 5 | 3.0 | 7.0 | 0.00 | 0.00 | 0.00 | 65 | 1011.0 |
| 20260508055523 | 50 | 340 | 4.0 | 7.0 | 0.00 | 0.00 | 0.00 | 64 | 1011.2 |
| 20260508055016 | 49 | 295 | 1.0 | 7.0 | 0.00 | 0.00 | 0.00 | 65 | 1011.2 |
| 20260508054540 | 49 | 344 | 2.0 | 6.0 | 0.00 | 0.00 | 0.00 | 67 | 1011.2 |
| 20260508054018 | 48 | 309 | 1.0 | 4.0 | 0.00 | 0.00 | 0.00 | 67 | 1010.4 |
| 20260508053543 | 48 | 306 | 0.0 | 0.0 | 0.00 | 0.00 | 0.00 | 68 | 1010.4 |
| 20260508053045 | 48 | 306 | 0.0 | 0.0 | 0.00 | 0.00 | 0.00 | 68 | 1010.4 |
| 20260508052535 | 48 | 306 | 0.0 | 0.0 | 0.00 | 0.00 | 0.00 | 68 | 1010.2 |
| 20260508052028 | 48 | 306 | 0.0 | 0.0 | 0.00 | 0.00 | 0.00 | 68 | 1010.2 |
| 20260508051602 | 48 | 306 | 0.0 | 0.0 | 0.00 | 0.00 | 0.00 | 68 | 1010.2 |
| 20260508051030 | 48 | 306 | 0.0 | 0.0 | 0.00 | 0.00 | 0.00 | 68 | 1010.2 |
| 20260508050525 | 48 | 306 | 0.0 | 0.0 | 0.00 | 0.00 | 0.00 | 68 | 1010.2 |
| 20260508050049 | 48 | 306 | 0.0 | 0.0 | 0.00 | 0.00 | 0.00 | 68 | 1010.2 |
| 20260508045523 | 48 | 306 | 0.0 | 0.0 | 0.00 | 0.00 | 0.00 | 68 | 1010.2 |
| 20260508045041 | 48 | 306 | 0.0 | 0.0 | 0.00 | 0.00 | 0.00 | 68 | 1010.2 |
| 20260508044604 | 48 | 306 | 0.0 | 0.0 | 0.00 | 0.00 | 0.00 | 68 | 1010.2 |
| 20260508044043 | 48 | 306 | 0.0 | 0.0 | 0.00 | 0.00 | 0.00 | 67 | 1010.4 |
| 20260508043532 | 48 | 306 | 0.0 | 0.0 | 0.00 | 0.00 | 0.00 | 68 | 1010.4 |
| 20260508043027 | 48 | 306 | 0.0 | 0.0 | 0.00 | 0.00 | 0.00 | 67 | 1010.4 |
| 20260508042540 | 49 | 306 | 0.0 | 0.0 | 0.00 | 0.00 | 0.00 | 68 | 1010.5 |
| 20260508042021 | 49 | 306 | 0.0 | 0.0 | 0.00 | 0.00 | 0.00 | 67 | 1010.5 |
| 20260508041550 | 48 | 306 | 0.0 | 0.0 | 0.00 | 0.00 | 0.00 | 66 | 1010.5 |
| 20260508041022 | 48 | 306 | 0.0 | 0.0 | 0.00 | 0.00 | 0.00 | 66 | 1010.5 |
| 20260508040544 | 48 | 306 | 0.0 | 0.0 | 0.00 | 0.00 | 0.00 | 64 | 1010.5 |
| 20260508040050 | 48 | 306 | 0.0 | 0.0 | 0.00 | 0.00 | 0.00 | 65 | 1010.5 |
| 20260508035537 | 49 | 306 | 0.0 | 0.0 | 0.00 | 0.00 | 0.00 | 64 | 1010.4 |
| 20260508035104 | 49 | 306 | 0.0 | 0.0 | 0.00 | 0.00 | 0.00 | 64 | 1010.4 |
| 20260508034615 | 49 | 306 | 0.0 | 0.0 | 0.00 | 0.00 | 0.00 | 65 | 1010.4 |
| 20260508034116 | 49 | 306 | 0.0 | 0.0 | 0.00 | 0.00 | 0.00 | 64 | 1010.4 |
| 20260508033532 | 49 | 306 | 0.0 | 0.0 | 0.00 | 0.00 | 0.00 | 64 | 1010.4 |
| 20260508033107 | 49 | 306 | 0.0 | 0.0 | 0.00 | 0.00 | 0.00 | 64 | 1010.4 |
| 20260508032554 | 48 | 306 | 0.0 | 0.0 | 0.00 | 0.00 | 0.00 | 63 | 1010.5 |
| 20260508031534 | 48 | 306 | 0.0 | 0.0 | 0.00 | 0.00 | 0.00 | 62 | 1010.5 |
| 20260508030529 | 48 | 306 | 0.0 | 0.0 | 0.00 | 0.00 | 0.00 | 61 | 1010.5 |
| 20260508030032 | 48 | 306 | 0.0 | 0.0 | 0.00 | 0.00 | 0.00 | 61 | 1010.5 |
| 20260508025529 | 48 | 306 | 0.0 | 0.0 | 0.00 | 0.00 | 0.00 | 60 | 1010.4 |
| 20260508025042 | 48 | 306 | 0.0 | 0.0 | 0.00 | 0.00 | 0.00 | 61 | 1010.4 |
| 20260508024556 | 48 | 306 | 0.0 | 0.0 | 0.00 | 0.00 | 0.00 | 61 | 1010.4 |
| 20260508023529 | 48 | 306 | 0.0 | 0.0 | 0.00 | 0.00 | 0.00 | 59 | 1010.4 |
| 20260508023039 | 48 | 306 | 0.0 | 0.0 | 0.00 | 0.00 | 0.00 | 60 | 1010.4 |
| 20260508022554 | 48 | 306 | 0.0 | 0.0 | 0.00 | 0.00 | 0.00 | 60 | 1010.2 |
| 20260508022056 | 48 | 306 | 0.0 | 0.0 | 0.00 | 0.00 | 0.00 | 59 | 1010.2 |
| 20260508021621 | 48 | 306 | 0.0 | 0.0 | 0.00 | 0.00 | 0.00 | 59 | 1010.2 |
| 20260508021018 | 48 | 306 | 0.0 | 0.0 | 0.00 | 0.00 | 0.00 | 58 | 1010.2 |
| 20260508020544 | 49 | 306 | 0.0 | 0.0 | 0.00 | 0.00 | 0.00 | 58 | 1010.2 |
| 20260508020026 | 49 | 306 | 0.0 | 0.0 | 0.00 | 0.00 | 0.00 | 58 | 1010.2 |
| 20260508015553 | 49 | 306 | 0.0 | 0.0 | 0.00 | 0.00 | 0.00 | 59 | 1010.2 |